Weather observations for the past three days for
Canefield Airport
Imperial (Metric)
Date Time (ast) Wind (mph) Vis. (mi.) Weather Sky Cond. Temperature (ºF) Relative Humidity Wind Chill (°F) Heat Index (°F) Pressure Precipitation (in)
Air Dwpt 6 hour altimeter (in) sea level (mb) 1 hr 3 hr 6 hr
Max. Min.
03 16:00 E 7 0.00 Partly Cloudy SCT017 86 75.2 70% 95 0 0.0
03 15:00 SE 9 0.00 Partly Cloudy SCT019 89.6 75.2 63% 100 0 0.0
03 14:00 SE 9 0.00 Partly Cloudy SCT021 86 71.6 62% 92 0 0.0
03 13:00 SE 7 0.00 Partly Cloudy SCT022 87.8 75.2 66% 98 0 0.0
03 12:00 SE 7 0.00 Mostly Cloudy BKN022 86 71.6 62% 92 0 0.0
03 11:00 E 6 0.00 Mostly Cloudy BKN023 86 69.8 59% 91 0 0.0
03 09:00 N 3 0.00 A Few Clouds FEW024 82.4 71.6 70% 87 0 0.0
03 08:00 N 2 0.00 A Few Clouds FEW022 80.6 73.4 79% 85 0 0.0
02 15:00 SE 6 0.00 Mostly Cloudy BKN018 84.2 75.2 74% 92 0 0.0
02 14:00 E 6 0.00 Mostly Cloudy BKN018 82.4 75.2 79% 89 0 0.0
02 13:00 E 5 0.00 Mostly Cloudy BKN018 86 75.2 70% 95 0 0.0
02 12:00 S 9 0.00 Mostly Cloudy BKN018 84.2 73.4 70% 91 0 0.0
02 11:00 S 7 0.00 Mostly Cloudy BKN018 86 77 75% 97 0 0.0
02 10:00 E 8 0.00 Mostly Cloudy BKN018 84.2 75.2 74% 92 0 0.0
02 09:00 E 8 0.00 Partly Cloudy SCT018 84.2 71.6 66% 90 0 0.0
01 16:00 E 6 0.00 A Few Clouds FEW018 86 69.8 59% 91 0 0.0
01 15:00 E 9 0.00 A Few Clouds FEW017 86 66.2 52% 88 0 0.0
01 13:00 E 7 0.00 A Few Clouds FEW020 86 69.8 59% 91 0 0.0
01 12:00 SE 7 0.00 A Few Clouds FEW020 87.8 71.6 59% 94 0 0.0
01 11:00 SE 7 0.00 A Few Clouds FEW019 86 69.8 59% 91 0 0.0
01 10:00 SE 7 0.00 A Few Clouds FEW017 86 69.8 59% 91 0 0.0
01 09:00 Vrbl 2 0.00 A Few Clouds FEW019 80.6 75.2 84% 86 0 0.0
01 08:00 N 3 0.00 A Few Clouds FEW019 80.6 73.4 79% 85 0 0.0
Date Time (ast) Wind (mph) Vis. (mi.) Weather Sky Cond. Air Dwpt Max. Min. Relative Humidity Wind Chill (°F) Heat Index (°F) altimeter (in) sea level (mb) 1 hr 3 hr 6 hr
6 hour
Temperature (ºF) Pressure Precipitation (in)